EHI
0 0 0 0 0 0 0 0 0 0 0 0 0 0 0 0 0 0 0 0 0 0 0 0 0 0 0 0 0 0 0 0 0 0 0 0 0 0 0 0 0 0 0
0 0 0 0 0 0 0 0 0 0 0 0 0 0 0 0 0 0 0 0 0 0 0 0 0 0 0 0 0 0 0 0 0 0 0 0 0 0 0 0 0 0 0
0 0 0 0 0 0 0 0 0 0 0 0 0 0 0 0 0 0 0 0 0 0 0 0 0 0 0 0 0 0 0 0 0 0 0 0 0 0 0 0 0 0 0
0 0 0 0 0 0 0 0 0 0 0 0 0 0 0 0 0 0 0 0 0 0 0 0 0 0 0 0 0 0 0 0 0 0 0 0 0 0 0 0 0 0 0
0 0 0 0 0 0 0 0 0 0 0 0 0 0 0 0 0 0 0 0 0 0 0 0 0 0 0 0 0 0 0 0 0 0 0 0 0 0 0 0 0 0 0
0 0 0 0 0 0 0 0 0 0 0 0 0 0 0 0 0 0 0 0 0 0 0 0 0 0 0 0 0 0 0 0 0 0 0 0 0 0 0 0 0 0 0
0 0 0 0 0 0 0 0 0 0 0 0 0 0 0 0 0 0 0 0 0 0 0 0 0 0 0 0 0 0 0 0 0 0 0 0 0 0 0 0 0 0 0
0 0 0 0 0 0 0 0 0 0 0 0 0 0 0 0 0 0 0 0 0 0 0 0 0 0 0 0 0 0 0 0 0 0 0 0 0 0 0 0 0 0 0
0 0 0 0 0 0 0 0 0 0 0 0 0 0 0 0 0 0 0 0 0 0 0 0 0 0 0 0 0 0 0 0 0 0 0 0 0 0 0 0 0 0 0
0 0 0 0 0 0 0 0 0 0 0 0 0 0 0 0 0 0 0 0 0 0 0 0 0 0 0 0 0 0 0 0 0 0 0 0 0 0 0 0 0 0 0
0 0 0 0 0 0 0 0 0 0 0 0 0 0 0 0 0 0 0 0 0 0 0 0 0 0 0 0 0 0 0 0 0 0 0 0 0 0 0 0 0 0 0
0 0 0 0 0 0 0 0 0 0 0 0 0 0 0 0 0 0 0 0 0 0 0 0 0 0 0 0 0 0 0 0 0 0 0 0 0 0 0 0 0 0 0
0 0 0 0 0 0 0 0 0 0 0 0 0 0 0 0 0 0 0 0 0 0 0 0 0 0 0 0 0 0 0 0 0 0 0 0 0 0 0 0 0 0 0
0 0 0 0 0 0 0 0 0 0 0 0 0 0 0 0 0 0 0 0 0 0 0 0 0 0 0 0 0 0 0 0 0 0 0 0 0 0 0 0 0 0 0
0 0 0 0 0 0 0 0 0 0 0 0 0 0 0 0 0 0 0 0 0 0 0 0 0 0 0 0 0 0 0 0 0 0 0 0 0 0 0 0 0 0 0
0 0 0 0 0 0 0 0 0 0 0 0 0 0 0 0 0 0 0 0 0 0 0 0 0 0 0 0 0 0 0 0 0 0 0 0 0 0 0 0 0 0 0
0 0 0 0 0 0 0 0 0 0 0 0 0 0 0 0 0 0 0 0 0 0 0 0 0 0 0 0 0 0 0 0 0 0 0 0 0 0 0 0 0 0 0
0 0 0 0 0 0 0 0 0 0 0 0 0 0 0 0 0 0 0 0 0 0 0 0 0 0 0 0 0 0 0 0 0 0 0 0 0 0 0 0 0 0 0
0 0 0 0 0 0 0 0 0 0 0 0 0 0 0 0 0 0 0 0 0 0 0 0 0 0 0 0 0 0 0 0 0 0 0 0 0 0 0 0 0 0 0
0 0 0 0 0 0 0 0 0 0 0 0 0 0 0 0 0 0 0 0 0 0 0 0 0 0 0 0 0 0 0 0 0 0 0 0 0 0 0 0 0 0 0
0 0 0 0 0 0 0 0 0 0 0 0 0 0 0 0 0 0 0 0 0 0 0 0 0 0 0 0 0 0 0 0 0 0 0 0 0 0 0 0 0 0 0
0 0 0 0 0 0 0 0 0 0 0 0 0 0 0 0 0 0 0 0 0 0 0 0 0 0 0 0 0 0 0 0 0 0 0 0 0 0 0 0 0 0 0
0 0 0 0 0 0 0 0 0 0 0 0 0 0 0 0 0 0 0 0 0 0 0 0 0 0 0 0 0 0 0 0 0 0 0 0 0 0 0 0 0 0 0
0 0 0 0 0 0 0 0 0 0 0 0 0 0 0 0 0 0 0 0 0 0 0 0 0 0 0 0 0 0 0 0 0 0 0 0 0 0 0 0 0 0 0
0 0 0 0 0 0 0 0 0 0 0 0 0 0 0 0 0 0 0 0 0 0 0 0 0 0 0 0 0 0 0 0 0 0 0 0 0 0 0 0 0 0 0
0 0 0 0 0 0 0 0 0 0 0 0 0 0 0 0 0 0 0 0 0 0 0 0 0 0 0 0 0 0 0 0 0 0 0 0 0 0 0 0 0 0 0
Wind_Speed
3 3 4 5 6 6 7 7 7 6 5 4 3 3 2 1 1 1 1 1 1 1 1 0 0 0 0 1 2 1 2 2 1 2 4 5 5 5 5 4 5 6 6
4 4 4 4 5 5 6 6 6 6 5 4 3 3 3 2 1 1 1 1 1 1 1 1 0 0 1 2 2 1 2 2 1 1 3 5 6 4 3 4 4 5 4
10 7 5 4 5 5 6 6 6 6 6 5 4 4 3 3 2 1 1 2 1 0 1 1 1 0 0 1 2 2 2 3 2 2 2 2 4 5 4 4 4 4 4
8 7 7 5 5 4 5 6 6 6 5 5 5 5 3 2 1 1 0 2 2 1 0 1 1 0 0 2 2 2 2 2 3 2 3 4 4 4 6 4 4 5 6
10 9 8 7 5 5 5 5 6 5 5 5 6 6 4 2 1 1 1 2 2 2 1 0 0 1 1 2 3 3 2 2 3 3 3 3 3 5 6 9 6 4 5
9 8 7 6 5 4 5 5 6 5 5 6 6 6 6 4 3 2 1 1 1 2 2 1 1 2 2 3 3 3 4 4 4 4 3 3 4 4 5 8 9 8 6
11 10 10 8 7 7 6 6 6 5 5 5 5 5 5 5 4 2 1 0 1 1 2 2 2 2 3 4 4 3 4 4 5 5 4 4 5 5 5 8 11 11 7
11 12 12 10 9 8 7 7 7 5 5 5 5 4 4 3 2 2 2 1 1 2 2 3 3 4 4 4 4 3 4 4 5 6 6 4 5 5 4 5 8 13 9
12 12 11 10 10 9 8 8 8 6 6 5 5 4 4 3 3 2 1 1 2 2 3 3 4 4 5 5 4 4 5 5 5 6 6 5 5 4 5 4 4 7 14
11 11 11 11 10 9 8 7 7 7 6 6 5 4 3 3 3 1 1 2 2 2 3 4 5 5 5 5 5 5 5 6 6 5 6 6 5 5 5 5 5 6 10
14 13 12 11 9 8 8 8 7 6 5 5 4 4 3 2 2 1 2 2 2 3 4 5 5 6 6 6 5 6 7 7 7 7 7 8 8 6 5 5 6 6 7
12 11 10 10 9 9 8 8 7 7 6 5 5 4 3 2 1 2 2 3 3 4 4 5 6 6 7 7 7 8 8 8 8 9 8 9 8 8 7 6 7 8 8
9 8 9 10 11 10 9 8 8 7 6 5 5 3 2 2 2 3 3 4 4 5 5 5 6 7 7 8 8 8 8 8 9 9 9 10 9 10 8 8 8 8 10
9 10 10 10 10 9 9 8 7 6 6 5 4 4 3 3 4 4 4 5 5 5 6 6 7 8 8 8 8 8 8 9 9 9 9 10 10 10 10 9 10 10 10
8 10 11 9 9 8 8 8 7 6 6 5 4 4 4 4 4 4 5 5 6 6 7 7 8 8 7 7 8 8 8 8 9 9 9 10 13 17 15 12 9 9 9
8 9 9 10 10 10 9 7 7 6 5 5 4 4 3 4 4 5 6 6 7 7 7 8 8 9 8 15 20 16 8 7 8 8 8 10 13 16 22 25 25 21 14
7 9 10 10 10 9 9 8 7 5 5 4 3 3 4 4 5 6 6 7 7 7 8 8 8 9 12 20 21 22 13 8 7 8 8 9 10 17 10 17 23 21 25
6 7 7 7 7 7 6 6 6 5 4 3 3 4 4 5 6 6 7 7 7 7 7 8 9 9 12 20 22 23 12 8 8 8 9 10 10 11 14 12 12 12 13
5 6 7 7 7 7 7 7 5 4 3 3 4 4 5 5 6 6 7 7 6 7 8 8 9 9 12 19 22 23 8 7 9 9 9 11 11 18 25 17 13 13 12
5 6 6 6 7 6 6 6 4 3 3 4 5 5 5 5 6 7 7 6 6 8 8 8 8 9 10 17 21 22 7 8 8 8 9 16 18 23 26 15 12 15 13
6 7 7 6 5 5 6 5 3 4 4 4 4 5 5 6 6 6 6 6 7 7 7 9 8 8 11 16 20 22 10 8 8 7 6 8 22 26 27 23 13 17 18
6 6 6 5 4 4 5 4 3 4 3 4 5 5 6 6 5 6 7 7 7 8 8 9 9 7 8 13 16 22 21 20 11 9 7 10 23 26 26 19 19 25 20
5 4 6 5 3 3 3 3 4 3 3 4 5 6 6 6 6 6 7 7 6 6 7 7 9 8 6 9 19 22 23 24 14 10 19 23 26 23 15 18 23 18 8
4 4 5 4 2 2 2 3 4 3 3 5 6 6 6 6 6 5 5 6 6 7 8 8 9 9 7 6 6 8 10 15 13 11 15 21 20 16 16 15 11 7 7
3 4 4 3 3 2 3 3 3 3 4 5 6 6 6 6 6 6 6 7 7 8 11 8 8 9 10 11 21 17 10 9 10 13 8 5 6 6 6 6 7 6 6
3 3 3 2 2 3 4 4 4 3 4 5 6 5 5 5 6 7 8 12 14 19 21 20 19 14 19 25 26 26 26 26 24 16 7 7 7 8 8 8 7 6 6
Wind_Direction
163 106 87 94 98 102 113 120 121 127 127 120 120 115 110 92 76 83 99 97 103 124 135 167 296 2 275 276 287 292 300 294 298 320 310 295 285 282 275 275 282 285 286
156 131 108 99 107 118 118 118 122 126 127 126 128 127 124 112 96 29 34 47 110 140 144 156 179 295 306 313 309 299 298 292 311 306 325 325 326 329 295 281 274 277 294
166 156 139 126 122 130 136 131 129 126 123 121 109 89 71 53 36 18 354 339 339 157 150 158 156 175 199 280 288 275 251 280 297 186 211 290 288 300 288 284 275 289 294
163 158 152 148 148 151 139 129 128 124 125 124 126 131 137 150 187 193 321 345 5 14 73 135 140 164 244 277 282 268 239 239 278 280 225 225 242 278 300 293 280 278 277
168 163 161 157 152 149 141 133 126 122 123 121 127 125 125 141 128 85 52 15 2 4 2 53 88 306 288 284 287 290 267 233 242 252 255 259 252 230 256 286 288 281 256
167 158 152 143 141 142 139 138 134 131 131 127 130 135 139 140 126 103 66 7 347 346 348 339 315 296 287 283 281 277 274 261 256 256 247 247 255 260 255 276 290 288 278
166 162 160 161 159 160 158 153 147 144 143 137 139 144 146 146 149 155 160 214 317 307 302 311 297 288 282 283 282 280 278 270 266 262 259 253 251 255 265 281 293 292 286
174 173 173 170 168 169 167 163 160 157 156 148 147 148 146 145 157 169 179 209 235 257 274 291 292 291 293 293 290 283 276 272 268 270 267 264 262 258 257 267 294 301 295
182 180 177 175 173 173 175 172 167 162 163 158 152 153 153 153 164 175 186 233 256 269 287 298 300 299 298 293 292 279 279 279 269 267 267 263 260 256 254 253 256 281 300
186 184 183 181 179 176 172 169 167 167 165 162 162 159 161 166 169 169 240 273 283 289 304 305 302 299 296 293 288 282 276 277 273 266 266 265 262 256 251 249 249 247 275
192 190 187 183 176 168 165 166 167 161 162 163 158 152 163 167 164 201 258 272 280 291 294 294 295 294 293 290 286 281 281 278 277 277 273 270 267 262 258 253 252 254 260
195 189 181 173 172 171 168 168 167 166 169 165 159 164 170 172 198 253 268 271 278 282 282 287 289 289 289 288 285 284 284 280 279 278 276 274 274 266 263 259 258 261 260
191 182 176 178 178 175 170 168 168 169 167 162 161 169 186 207 237 256 267 272 274 281 284 284 283 284 284 284 281 278 277 274 273 273 271 273 272 272 269 263 264 266 270
190 184 183 182 177 173 169 167 170 169 165 163 168 186 212 226 241 254 263 268 271 276 279 278 277 277 279 279 279 277 274 271 269 267 265 265 264 267 271 271 266 267 270
191 188 185 178 171 167 167 166 168 169 164 166 182 209 226 237 249 260 266 270 272 271 273 277 279 278 279 274 274 271 265 265 267 266 263 262 270 275 282 284 277 272 273
197 188 178 172 172 171 168 164 167 170 163 173 200 222 237 250 258 264 268 272 274 274 274 274 275 278 281 294 302 302 286 274 271 272 269 269 278 285 291 294 295 292 286
192 183 179 176 173 168 163 167 167 161 164 183 211 230 243 256 263 268 272 273 273 273 275 274 274 273 278 294 303 304 302 285 275 273 274 280 280 293 283 286 289 288 286
188 179 167 159 154 152 150 149 149 156 169 195 227 243 249 260 269 273 273 272 271 271 273 275 275 276 282 298 306 308 303 282 272 269 270 274 276 275 284 277 273 269 272
170 160 153 146 141 145 146 141 147 156 178 217 240 250 252 261 271 274 274 274 275 276 274 274 276 277 285 299 306 308 293 280 274 269 269 276 276 283 294 294 285 283 278
130 130 127 122 131 140 138 138 153 171 213 235 247 254 255 259 266 270 274 274 274 276 280 281 277 276 279 294 304 307 291 283 280 273 268 281 288 293 296 293 286 287 286
122 122 121 126 139 141 135 144 168 211 233 246 258 264 264 264 267 271 272 278 281 284 284 285 281 275 280 295 302 305 300 284 284 282 276 272 292 296 297 298 291 289 293
122 123 122 125 135 140 140 161 211 235 248 259 266 270 272 274 277 276 280 281 283 288 289 290 290 279 279 291 298 303 305 304 297 289 282 281 294 298 302 303 298 300 304
132 126 130 131 140 154 156 190 237 251 261 269 272 275 278 275 274 276 283 288 285 285 290 290 292 291 277 282 298 304 305 304 300 288 294 299 303 306 306 299 300 303 299
138 131 133 144 172 195 204 224 250 260 263 270 275 277 279 281 280 276 274 279 282 283 287 289 291 293 289 279 278 278 290 298 297 293 293 299 301 301 298 299 298 287 275
142 142 153 173 205 228 249 257 263 269 272 275 276 279 275 277 283 278 270 278 266 272 288 287 285 294 297 294 304 308 303 297 291 302 295 290 292 288 285 283 279 274 278
144 149 166 195 229 250 267 275 275 269 270 278 279 276 277 279 281 287 292 286 286 294 296 296 296 295 296 303 308 310 310 311 310 312 303 298 294 292 290 289 288 281 278